Tulsa, OK

1:45 AM CDT on June 25, 2017 (GMT -0500)
Tulsa International

Weather History for KTUL - June, 2014

Change the Weather History Date:

Sunday, June 29, 2014

  Actual Average Record
Temperature  
Mean Temperature 83 °F 81 °F  
Max Temperature 91 °F 91 °F 105 °F (1925)
Min Temperature 74 °F 71 °F 57 °F (1923)
Cooling Degree Days 18 16  
Month to date cooling degree days 382 363  
Year to date cooling degree days 653 597  
Since 1 June cooling degree days 382 363  
Growing Degree Days 32 (Base 50)    
Moisture  
Dew Point 75 °F    
Average Humidity 77    
Maximum Humidity 94    
Minimum Humidity 59    
Precipitation  
Precipitation 0.00 in 0.13 in 1.99 in (1995)
Month to date precipitation 4.67 4.59  
Year to date precipitation 13.12 21.09  
Sea Level Pressure  
Sea Level Pressure 29.89 in    
Wind  
Wind Speed 14 mph (South)    
Max Wind Speed 24 mph    
Max Gust Speed 32 mph    
Visibility 10 miles    
Events      
T = Trace of Precipitation, MM = Missing Value Source: NWS Daily Summary

Daily Weather History Graph

Daily Weather History Graph

Search for Another Location

Airport or City:

Trip Planner

Search our weather history database for the weather conditions in past years. The results will help you decide how hot, cold, wet, or windy it might be!

Date:

Astronomy

Jun. 29, 2014 Rise Set
Actual Time 6:09 AM CDT 8:44 PM CDT
Civil Twilight 5:38 AM CDT 9:15 PM CDT
Nautical Twilight 5:01 AM CDT 9:52 PM CDT
Astronomical Twilight 4:19 AM CDT 10:34 PM CDT
Moon 8:23 AM CDT (6/29) 10:11 PM CDT (6/29)
Length of Visible Light 15h 36m
Length of Day
14h 35m
Waxing Crescent, 5% of the Moon is Illuminated
Jun 29
Waxing Crescent
Jul 5
First Quarter
Jul 12
Full
Jul 18
Last Quarter
Jul 26
New

Hourly Weather History & Observations

Time (CDT) Temp. Heat Index Dew Point Humidity Pressure Visibility Wind Dir Wind Speed Gust Speed Precip Events Conditions
12:53 AM 75.0 °F - 73.0 °F 94% 29.90 in 10.0 mi ESE 5.8 mph - N/A   Partly Cloudy
1:53 AM 78.1 °F - 73.0 °F 84% 29.89 in 10.0 mi SSE 8.1 mph - N/A   Clear
2:53 AM 77.0 °F - 73.0 °F 88% 29.88 in 10.0 mi SSE 8.1 mph - N/A   Partly Cloudy
3:53 AM 77.0 °F - 73.9 °F 90% 29.89 in 10.0 mi SSE 8.1 mph - N/A   Mostly Cloudy
4:53 AM 77.0 °F - 73.9 °F 90% 29.89 in 10.0 mi South 12.7 mph - N/A   Overcast
5:53 AM 78.1 °F - 73.9 °F 87% 29.90 in 10.0 mi South 11.5 mph - N/A   Mostly Cloudy
6:30 AM 77.0 °F - 75.0 °F 94% 29.92 in 10.0 mi South 10.4 mph - N/A   Scattered Clouds
6:53 AM 78.1 °F - 75.0 °F 90% 29.91 in 10.0 mi South 10.4 mph - N/A   Partly Cloudy
7:33 AM 78.1 °F - 75.0 °F 90% 29.93 in 10.0 mi South 12.7 mph - N/A   Mostly Cloudy
7:53 AM 79.0 °F - 75.0 °F 88% 29.91 in 10.0 mi South 11.5 mph - N/A   Overcast
8:53 AM 81.0 °F 86.7 °F 75.0 °F 82% 29.93 in 10.0 mi South 15.0 mph - N/A   Overcast
9:41 AM 82.9 °F 90.8 °F 75.9 °F 79% 29.95 in 10.0 mi South 16.1 mph - N/A   Mostly Cloudy
9:50 AM 84.2 °F 92.3 °F 75.2 °F 74% 29.95 in 10.0 mi South 16.1 mph 24.2 mph N/A   Mostly Cloudy
9:53 AM 84.0 °F 91.9 °F 75.0 °F 74% 29.93 in 10.0 mi SSW 17.3 mph 24.2 mph N/A   Mostly Cloudy
10:53 AM 84.9 °F 94.1 °F 75.9 °F 74% 29.93 in 10.0 mi South 16.1 mph - N/A   Mostly Cloudy
11:27 AM 87.1 °F 97.3 °F 75.9 °F 69% 29.95 in 10.0 mi South 12.7 mph - N/A   Scattered Clouds
11:53 AM 87.1 °F 97.3 °F 75.9 °F 69% 29.91 in 10.0 mi SSW 13.8 mph - N/A   Scattered Clouds
12:53 PM 88.0 °F 98.5 °F 75.9 °F 67% 29.91 in 10.0 mi South 13.8 mph - N/A   Mostly Cloudy
1:12 PM 87.1 °F 97.3 °F 75.9 °F 69% 29.94 in 10.0 mi South 13.8 mph - N/A   Mostly Cloudy
1:53 PM 87.1 °F 97.3 °F 75.9 °F 69% 29.91 in 10.0 mi South 12.7 mph - N/A   Overcast
2:53 PM 89.1 °F 100.2 °F 75.9 °F 65% 29.88 in 10.0 mi South 15.0 mph - N/A   Mostly Cloudy
3:53 PM 90.0 °F 101.3 °F 75.9 °F 63% 29.86 in 10.0 mi South 19.6 mph 26.5 mph N/A   Mostly Cloudy
4:53 PM 90.0 °F 100.2 °F 75.0 °F 61% 29.85 in 10.0 mi South 20.7 mph 24.2 mph N/A   Overcast
5:53 PM 90.0 °F 100.2 °F 75.0 °F 61% 29.83 in 10.0 mi South 20.7 mph 26.5 mph N/A   Overcast
6:53 PM 90.0 °F 97.9 °F 73.0 °F 57% 29.82 in 10.0 mi South 19.6 mph 32.2 mph N/A   Mostly Cloudy
7:53 PM 88.0 °F 96.5 °F 73.9 °F 63% 29.82 in 10.0 mi South 13.8 mph 23.0 mph N/A   Mostly Cloudy
8:53 PM 86.0 °F 93.0 °F 73.0 °F 65% 29.82 in 10.0 mi South 16.1 mph - N/A   Scattered Clouds
9:53 PM 84.9 °F 91.4 °F 73.0 °F 67% 29.83 in 10.0 mi South 16.1 mph - N/A   Scattered Clouds
10:53 PM 84.0 °F 90.2 °F 73.0 °F 69% 29.85 in 10.0 mi South 18.4 mph - N/A   Partly Cloudy
11:53 PM 82.9 °F 88.0 °F 72.0 °F 69% 29.85 in 10.0 mi South 12.7 mph - N/A   Clear